Dewpoint
72 70 70 70 68 69 67 66 58 60 59 57 58 56 51 58 59 62 59 60 58 58 57 57 57 59 61 58 60 57 59 59 61 54 57 67 70 70 71 71 72 72 72 73 74 75 75 76 76 76 76 76 77 78 77 77 77 77 77 77 77 77 76 76 76 76 76 76 77 77 76 76 76 76 76 76 76 76 75 75 74 74 74 74 74 74 74 74 74 74 74 74 74 74 75 75 75
70 70 70 70 70 69 64 64 61 57 58 55 50 58 59 61 61 57 61 62 59 56 57 56 56 57 56 54 57 58 58 61 63 64 66 68 69 71 71 70 71 71 70 72 73 73 73 76 77 76 76 77 78 77 77 77 77 77 76 77 77 77 77 76 76 76 76 77 77 76 76 76 75 75 76 76 76 75 75 75 75 75 74 74 74 74 74 74 74 75 75 74 74 73 73 73 74
70 69 69 69 68 68 68 65 57 56 55 47 48 50 53 55 57 61 58 59 57 57 57 56 56 55 54 59 58 57 58 63 64 64 66 69 68 69 70 71 71 70 71 71 71 72 74 76 77 77 76 76 77 77 77 77 77 77 77 77 77 77 77 77 77 76 77 77 76 76 76 76 76 76 76 76 76 75 75 75 75 75 75 75 75 75 74 74 74 74 74 74 74 74 74 74 74
70 70 69 68 65 67 64 64 59 55 54 52 47 50 50 51 52 55 57 56 57 57 56 60 59 61 57 53 55 59 59 60 64 64 66 66 67 69 70 70 71 70 70 70 70 72 74 76 77 77 77 77 77 77 77 77 77 77 77 77 77 77 77 77 77 77 77 76 76 75 76 76 76 76 76 75 75 75 74 75 75 74 74 74 75 75 75 74 74 74 74 73 74 74 74 73 73
70 71 71 67 67 64 62 59 58 57 49 46 46 49 51 52 54 56 56 56 57 57 57 59 61 59 61 61 60 61 58 62 64 65 64 65 69 69 70 71 70 69 69 71 71 72 74 76 77 77 77 77 77 77 77 77 77 77 77 77 77 77 77 77 77 77 76 76 76 76 76 76 76 76 75 75 75 75 75 75 74 74 74 75 74 74 74 74 74 74 74 74 75 75 74 74 73
69 69 70 72 65 67 61 58 53 52 44 48 47 48 51 52 54 55 56 56 57 57 58 56 56 62 58 60 59 58 59 60 62 63 66 67 67 69 70 70 69 69 69 71 72 73 74 77 77 77 77 77 77 77 77 77 77 77 77 77 77 77 77 77 77 76 76 76 76 75 76 76 75 75 75 74 74 74 74 75 75 74 74 74 75 74 74 74 74 74 74 74 74 74 75 74 74
67 69 68 68 66 67 58 50 48 43 45 48 48 49 50 52 54 55 56 56 57 57 58 56 57 56 56 60 61 62 62 61 62 62 66 67 68 67 68 67 67 68 69 71 72 73 74 77 77 77 77 77 77 77 77 77 77 77 77 77 77 77 77 77 76 76 76 76 76 76 76 76 76 76 75 75 74 74 74 74 74 74 75 74 73 74 74 74 74 74 74 74 74 73 73 74 74
69 67 68 61 62 60 58 51 52 44 44 48 50 50 51 52 54 54 55 54 54 54 57 57 58 58 59 61 59 61 62 63 64 65 67 68 67 67 67 66 67 67 68 72 72 73 77 77 77 77 77 77 76 76 77 77 77 77 77 77 77 77 77 76 76 76 76 76 76 76 76 75 75 75 74 74 74 74 74 73 74 74 73 73 74 74 74 74 74 74 74 74 73 73 74 74 74
67 65 66 63 59 59 53 51 41 45 46 47 47 52 57 52 52 53 53 52 56 55 55 56 56 58 59 60 60 62 64 63 65 67 65 67 66 67 66 66 67 67 68 71 73 73 75 77 77 77 77 76 76 76 76 77 77 77 77 77 77 77 77 76 76 76 76 76 76 76 75 75 75 75 75 74 74 74 74 73 74 73 73 73 73 73 73 74 74 73 74 74 74 74 74 74 74
68 64 62 61 56 51 45 40 40 43 45 50 50 51 52 53 52 52 52 54 54 55 56 56 58 58 61 59 60 61 63 64 66 66 66 66 66 66 66 66 66 66 67 70 69 71 74 77 76 76 76 76 76 76 76 77 77 77 77 76 77 76 77 76 76 76 76 76 76 76 75 75 75 75 74 74 73 73 73 73 73 73 73 74 74 74 73 73 74 74 74 74 74 74 74 74 74
65 65 61 59 57 54 45 37 40 43 45 48 50 52 52 52 52 52 53 52 55 54 56 55 56 58 59 61 61 63 64 65 64 65 66 66 66 66 65 66 66 66 67 69 68 72 74 75 76 77 77 76 76 76 76 77 77 77 76 76 76 76 77 76 76 76 76 76 76 75 75 75 75 74 74 74 74 73 73 73 73 73 74 74 74 74 74 74 74 74 74 74 74 74 74 74 74
61 61 61 57 57 53 47 38 37 38 44 47 49 52 53 52 52 50 51 54 54 54 55 57 54 57 58 60 61 63 64 64 64 65 66 66 65 64 65 65 65 66 67 67 69 70 73 75 76 77 77 76 77 77 77 77 77 76 76 76 76 77 77 76 76 76 76 76 75 75 75 75 75 75 75 74 74 73 73 73 74 74 74 74 74 74 74 74 74 74 74 74 74 74 74 74 74
60 61 62 60 55 55 48 50 37 42 46 46 48 50 52 53 51 51 51 53 54 53 54 56 55 55 55 59 62 63 64 64 64 65 65 65 64 64 64 65 66 67 67 68 68 70 72 73 73 75 76 77 77 77 77 76 76 76 76 76 76 77 77 76 76 76 76 76 75 75 75 75 75 74 74 74 73 73 73 73 73 74 74 74 74 74 74 74 74 74 74 74 74 74 74 74 74
59 59 58 56 55 50 53 48 46 44 42 45 46 51 52 51 52 51 51 52 53 53 56 55 56 56 57 59 60 60 63 63 64 65 65 65 64 63 63 64 66 67 68 69 69 70 70 70 69 72 76 75 76 77 76 76 76 76 76 76 76 76 76 76 76 76 76 76 75 75 76 75 75 75 74 74 74 74 74 74 74 74 74 73 74 74 74 74 74 74 74 74 74 74 74 74 74
57 58 58 53 54 48 42 53 44 41 42 45 46 47 50 51 51 52 52 53 53 54 55 57 55 54 55 56 58 59 62 62 64 64 64 65 64 64 64 65 66 68 68 68 69 69 69 69 68 70 73 73 74 74 75 76 76 76 76 76 76 76 76 76 76 75 76 76 76 75 76 75 75 75 74 74 74 73 75 75 74 74 73 73 74 74 74 74 74 74 74 75 75 75 75 74 74
56 55 57 56 51 48 44 42 44 44 40 46 47 48 48 50 51 51 51 53 51 53 55 54 57 55 55 56 57 59 62 61 62 64 64 66 66 65 65 66 66 68 70 69 70 71 71 72 72 72 73 73 73 72 74 75 76 76 76 77 76 76 76 76 76 75 76 76 76 75 75 76 75 74 75 74 74 74 75 73 74 74 74 74 74 74 75 74 74 74 75 75 75 75 75 75 75
55 55 54 51 52 50 45 52 48 49 42 45 47 48 48 48 53 50 52 53 51 51 55 51 55 53 53 55 58 59 61 61 62 63 65 66 67 65 66 66 66 67 68 70 71 72 72 73 74 72 72 72 70 71 72 75 76 77 77 77 76 76 76 76 76 76 76 76 76 76 76 74 75 76 75 74 74 75 75 74 74 75 75 74 74 75 75 74 74 75 75 75 75 74 75 75 75
55 53 55 51 56 52 48 49 40 40 46 44 47 48 49 48 50 51 52 51 52 52 53 54 54 57 56 56 58 60 61 61 61 61 64 65 67 64 64 66 66 66 67 70 73 72 72 74 74 74 73 72 70 71 72 74 76 76 76 77 77 77 76 76 77 76 76 76 76 75 76 76 76 75 75 74 76 75 75 75 75 74 75 75 75 75 75 75 75 75 75 75 75 75 75 75 76
54 50 48 46 55 53 50 48 42 43 41 44 47 47 49 49 51 49 50 50 51 52 53 53 54 58 57 57 59 60 61 61 61 61 62 64 65 65 64 66 66 66 67 69 71 72 73 74 74 73 74 73 72 73 71 74 75 75 75 76 75 76 76 76 76 76 75 77 76 74 76 74 74 76 76 76 75 75 75 75 75 75 75 75 75 75 75 75 76 76 75 75 76 75 75 76 76
52 49 49 45 50 59 49 44 43 43 43 43 44 46 48 51 50 46 50 49 51 52 51 53 55 56 57 56 59 60 60 61 61 61 62 64 65 64 64 65 65 67 66 68 70 72 72 73 73 73 75 76 74 73 73 74 73 74 74 74 74 75 76 75 77 77 77 78 76 76 76 74 75 76 74 76 75 74 75 76 76 75 75 75 76 75 76 76 76 76 76 76 76 75 74 74 74
49 47 44 50 60 46 43 44 45 44 43 42 44 42 47 44 51 47 48 50 50 52 53 53 54 56 55 58 56 59 60 60 61 61 62 63 63 61 64 65 66 66 67 67 71 72 72 73 72 73 76 75 74 72 73 73 72 73 73 72 72 74 75 75 76 77 77 78 77 76 73 72 72 74 74 73 73 75 74 74 75 74 77 77 75 76 75 75 75 74 75 75 75 74 73 73 74
47 46 43 44 47 42 46 46 45 45 41 41 41 43 44 45 49 47 48 47 47 49 52 53 55 56 58 58 59 60 60 59 59 60 61 62 63 63 63 64 65 66 67 67 68 71 72 72 72 73 74 75 74 72 73 73 73 71 73 72 73 74 74 74 74 75 76 78 76 73 72 72 73 73 73 73 74 75 75 74 71 74 75 75 74 76 74 75 75 75 74 73 75 75 72 72 71
45 46 45 44 45 46 46 45 45 44 44 43 41 43 44 41 43 44 48 49 46 48 51 53 54 55 58 58 60 59 60 60 59 60 61 61 63 62 63 63 64 64 66 67 68 70 72 73 74 73 74 75 75 74 74 74 73 71 72 73 73 72 72 73 74 73 75 76 75 73 70 69 69 70 72 73 73 74 73 72 73 72 73 74 73 73 73 74 76 73 75 75 73 69 70 71 72
47 41 43 43 42 44 49 48 48 45 44 44 43 42 40 43 40 44 45 46 46 48 50 54 56 57 58 58 58 59 60 60 60 58 60 60 62 61 62 62 65 66 67 67 68 68 69 71 72 73 74 74 75 74 73 72 73 71 71 74 73 72 72 73 73 73 75 75 75 73 71 70 68 70 72 73 73 73 72 73 73 72 71 71 72 72 72 73 72 77 74 74 73 73 70 72 70
46 44 41 42 44 45 47 48 46 46 46 45 43 40 39 40 42 43 42 45 48 48 49 52 55 56 57 56 59 60 57 60 59 59 60 60 61 61 61 63 63 66 66 67 68 68 68 68 72 72 74 74 72 72 71 71 71 71 72 72 72 73 73 73 73 74 74 73 73 74 72 70 70 71 72 73 73 72 72 73 71 72 71 71 72 71 72 72 73 72 74 73 73 74 72 72 70
46 44 40 38 39 43 45 46 45 45 44 42 39 38 38 39 42 41 45 42 47 48 49 53 55 56 57 58 59 59 61 59 58 58 59 60 59 60 61 62 62 61 64 66 66 68 68 68 68 71 72 72 71 69 71 71 71 71 71 73 72 74 74 73 74 73 73 72 71 73 70 71 70 70 71 72 72 73 73 73 73 70 73 73 71 72 73 72 72 72 72 73 73 73 72 67 67
42 42 39 39 40 41 43 43 42 41 39 38 37 36 36 38 39 38 42 45 48 49 50 55 55 57 56 58 58 60 58 60 60 59 60 60 61 61 61 61 62 63 64 66 66 68 68 68 68 69 71 73 72 70 71 71 71 70 71 72 73 74 73 74 74 73 72 71 71 74 74 74 72 70 71 72 73 73 74 74 72 72 70 72 73 73 73 73 72 72 73 71 73 72 70 65 64
38 37 39 39 39 40 41 40 39 38 36 37 36 34 34 35 37 37 40 43 47 48 51 55 55 56 57 57 58 61 61 60 61 60 59 60 61 61 62 63 62 62 63 63 66 69 67 67 67 68 70 72 72 70 71 70 72 70 71 71 71 73 74 73 72 72 71 70 72 74 74 74 74 72 74 74 73 73 73 72 73 72 71 72 73 73 73 74 73 73 73 74 74 74 67 64 64
42 38 32 33 33 34 37 37 37 37 36 36 35 33 32 33 33 36 39 43 47 50 53 55 55 57 57 58 58 61 61 61 60 60 60 61 62 62 62 62 62 62 63 64 66 67 66 67 67 69 70 73 73 70 70 70 71 70 71 71 71 70 73 73 72 70 72 72 74 75 75 75 75 74 75 75 74 73 73 74 73 73 74 74 74 76 75 75 74 74 74 73 72 68 65 65 64
37 36 34 31 29 29 32 34 35 35 35 35 33 29 28 30 32 35 40 45 49 50 53 54 56 55 57 57 58 61 61 61 61 60 61 62 63 61 62 62 63 63 64 65 65 66 66 66 67 68 70 71 73 70 71 70 71 71 72 70 71 72 70 70 71 71 71 72 74 75 75 76 75 74 76 75 74 73 74 75 74 73 74 75 75 75 75 74 73 73 72 72 68 66 64 64 60
31 32 30 27 26 28 30 32 33 33 33 33 31 28 27 27 30 36 39 47 48 50 51 52 55 55 56 57 58 60 60 62 61 61 60 62 62 62 63 63 63 64 65 65 65 65 66 67 67 67 70 71 72 71 71 72 71 70 71 71 70 71 71 70 69 70 71 71 72 74 75 75 76 75 75 77 74 73 73 74 74 73 75 75 75 75 73 74 73 72 71 70 67 63 60 63 60
28 27 25 25 25 27 29 32 32 31 31 31 30 28 26 28 34 36 38 45 43 49 51 52 54 54 55 57 58 59 60 61 61 60 60 61 61 63 63 64 64 63 66 65 65 65 65 67 69 68 69 71 72 72 73 73 72 72 71 71 71 71 69 69 68 70 70 69 70 72 75 76 76 76 75 76 77 74 73 73 73 75 77 75 74 76 75 74 74 73 73 69 65 60 55 61 62
26 26 25 24 25 26 26 28 31 32 31 31 29 25 26 27 37 36 41 45 45 50 51 52 52 55 55 56 57 59 60 61 61 60 61 62 62 63 64 65 65 66 65 66 66 66 66 66 69 68 69 70 72 72 73 73 73 72 72 71 68 71 69 69 69 69 70 69 71 69 74 75 76 75 76 76 76 75 73 74 73 73 77 74 76 77 76 74 75 71 74 69 67 64 52 56 58
24 25 25 24 24 26 26 27 30 30 30 28 29 27 26 33 38 40 45 45 46 49 50 52 53 55 57 57 58 58 60 61 60 61 61 61 63 63 63 67 66 66 67 66 66 66 66 67 68 68 71 70 72 72 73 72 73 73 72 71 72 71 72 70 69 69 70 68 70 69 74 75 75 76 76 76 76 75 74 73 72 73 76 76 76 76 75 74 75 74 73 70 68 66 59 58 59
21 23 24 24 25 25 26 26 29 28 29 28 28 28 28 30 39 44 43 42 45 47 54 49 52 57 55 55 57 59 61 61 60 62 61 62 62 63 64 65 65 65 66 66 68 68 68 67 68 69 67 68 69 70 72 73 72 73 71 72 72 72 73 71 69 68 67 69 67 69 74 74 74 76 75 75 76 73 73 73 74 73 74 75 77 76 75 75 74 74 70 71 69 67 62 62 57
20 22 23 24 23 24 24 26 26 27 28 28 27 26 27 28 30 38 36 39 43 45 47 51 52 55 58 56 57 59 60 61 62 62 62 61 63 63 63 64 65 65 66 68 69 68 69 68 69 69 69 66 67 70 71 70 71 70 70 70 70 70 71 70 71 69 69 67 68 69 73 74 74 75 76 75 75 74 72 71 73 72 73 74 75 74 73 72 75 76 71 68 69 67 66 60 62
20 21 23 23 23 24 24 22 25 25 25 25 26 27 26 27 30 38 44 43 43 42 45 50 57 57 57 57 56 57 59 61 61 61 61 62 61 63 63 63 64 65 67 67 66 67 69 67 68 69 69 69 68 70 70 69 69 70 70 69 68 69 71 70 70 70 69 67 70 71 73 73 75 75 75 75 75 75 74 73 73 74 74 74 75 76 73 73 73 73 71 71 68 65 64 63 54
17 19 20 20 21 22 23 27 25 25 24 25 28 26 27 29 28 29 35 42 42 41 42 49 54 53 56 59 57 57 60 64 61 61 61 62 62 62 62 64 66 65 66 66 67 66 68 68 68 68 69 69 68 70 69 70 71 69 69 68 68 68 69 68 69 70 68 67 72 72 73 74 74 75 75 76 75 75 75 73 74 74 75 75 76 75 74 74 74 72 70 70 68 67 63 59 55
17 17 19 19 19 21 23 25 26 26 24 25 25 26 26 26 25 26 27 35 42 42 43 47 53 55 58 57 58 58 58 62 61 61 61 61 61 62 63 63 64 64 65 65 66 67 69 69 69 70 69 68 68 69 70 70 70 70 69 69 68 67 69 70 68 69 69 67 70 72 73 75 75 75 75 75 75 75 75 74 74 75 76 75 75 75 74 73 73 72 70 68 66 64 64 64 63
16 16 18 16 17 17 20 23 22 24 23 25 29 25 26 28 29 29 29 28 38 42 43 45 48 52 56 58 58 59 59 61 60 62 60 60 62 63 63 64 64 64 65 66 66 67 67 70 70 71 70 69 70 70 71 71 71 72 72 72 70 69 69 70 71 70 70 68 68 70 73 75 74 74 74 74 75 75 76 75 74 75 76 76 75 75 74 73 73 72 70 69 65 64 62 62 59
16 16 15 14 14 15 17 19 23 24 22 26 27 27 27 28 26 27 29 26 30 39 41 46 50 52 55 58 57 57 57 60 57 58 61 61 62 63 64 66 65 64 65 65 66 66 66 68 70 71 71 71 71 71 71 72 72 72 72 73 72 72 71 71 70 69 70 70 67 70 71 73 74 73 73 74 74 75 76 76 75 76 76 76 76 75 74 71 72 71 70 69 67 64 61 62 61
14 15 14 13 13 14 15 17 17 20 19 22 24 26 28 31 27 24 28 29 31 38 44 43 54 54 58 58 59 59 60 63 62 61 62 62 63 64 66 66 66 65 66 67 66 67 68 69 70 72 71 71 71 72 73 72 73 71 72 71 70 70 70 69 70 69 68 68 65 66 70 72 73 74 73 74 74 74 76 76 76 76 76 76 76 74 74 72 72 71 70 67 65 66 67 65 64
11 9 9 10 12 11 12 13 16 14 21 25 24 24 25 28 28 28 29 28 30 36 42 43 45 55 54 56 57 56 56 57 60 61 62 61 64 64 66 67 66 65 66 67 67 68 69 70 71 72 72 72 72 73 73 73 72 72 72 71 70 70 70 71 72 70 69 69 68 66 69 72 73 73 72 73 74 75 75 76 77 76 75 76 76 76 74 73 71 71 68 67 68 69 66 65 65
13 11 10 10 9 7 7 9 12 16 20 21 22 22 24 25 26 30 28 28 29 33 42 45 39 51 53 55 55 57 56 61 61 63 63 63 64 65 66 67 67 66 67 67 67 68 70 71 71 72 73 72 73 74 73 73 73 72 72 72 71 71 70 72 73 73 71 70 69 67 67 69 73 74 72 74 74 75 75 76 77 76 75 75 75 75 75 73 72 72 69 69 70 71 69 64 64
14 8 5 6 6 5 4 7 10 13 15 20 19 19 25 27 29 30 29 28 30 33 43 45 44 46 53 56 55 57 57 60 61 60 63 63 64 65 66 68 67 66 67 68 68 69 70 71 72 73 73 73 73 74 74 74 74 73 73 72 72 72 72 72 73 73 72 71 70 69 70 69 72 75 74 73 74 75 75 76 77 77 76 76 75 75 74 74 73 73 72 71 70 71 71 66 66
15 9 6 6 7 7 4 5 9 14 18 19 21 15 22 22 24 27 31 29 30 35 46 46 48 45 49 51 55 57 60 60 60 60 64 63 64 65 66 68 68 67 67 69 69 70 70 72 73 73 73 73 74 75 74 74 74 74 73 73 73 73 73 72 71 72 72 71 70 71 71 72 70 74 76 74 75 74 75 76 75 76 76 75 74 74 74 74 74 74 73 72 71 70 71 67 65
12 10 7 4 8 14 16 11 13 14 15 19 16 13 14 16 24 26 27 26 28 32 42 47 47 46 48 52 52 53 56 55 57 60 64 64 64 65 66 68 69 68 68 69 69 69 70 72 73 73 74 73 74 74 74 73 73 73 73 74 74 73 73 72 72 72 73 72 71 72 72 72 73 73 74 75 74 75 75 75 74 74 76 76 76 75 74 73 72 73 73 73 71 70 70 68 65
11 10 8 14 18 18 21 17 19 15 13 18 13 10 10 15 21 24 28 28 27 30 36 44 46 46 49 52 47 51 57 56 58 58 63 64 66 66 66 68 69 68 69 69 69 70 71 72 73 74 74 74 74 74 75 73 73 74 74 74 74 74 74 72 72 72 73 73 72 72 73 73 74 73 75 72 73 72 75 75 75 75 75 75 75 76 75 74 73 73 73 73 73 71 70 70 67
11 11 13 13 17 16 14 17 14 11 12 13 6 6 9 16 22 22 22 23 26 28 28 37 43 43 48 50 53 49 49 55 60 63 64 64 65 65 66 69 70 69 69 70 70 69 71 73 74 74 75 75 74 74 74 74 74 74 74 74 74 75 74 73 73 72 73 74 74 74 74 73 74 74 73 72 71 73 74 76 76 75 75 75 76 75 77 75 74 72 74 73 73 72 70 70 68
11 12 14 15 16 15 16 13 15 12 10 5 6 7 7 12 16 20 18 22 23 26 32 33 34 46 50 49 51 48 52 54 59 61 64 65 65 66 67 68 70 70 69 70 70 70 72 73 75 75 75 76 76 75 75 75 74 74 75 74 75 75 75 74 73 72 72 74 74 74 73 72 73 74 73 73 70 72 72 74 76 76 76 76 76 76 76 76 76 74 74 73 72 73 71 70 70
13 12 11 16 19 13 17 13 11 10 13 9 5 9 15 9 15 13 17 19 24 24 26 35 35 39 51 51 50 47 52 55 58 62 62 64 66 67 66 67 69 69 68 68 69 71 72 73 75 75 76 76 75 75 74 74 74 75 75 75 75 75 74 73 73 73 73 73 74 73 74 71 71 73 73 74 74 73 73 74 75 76 76 77 77 77 76 76 76 75 74 74 73 72 72 69 70
14 14 13 15 15 17 13 14 11 12 10 10 14 10 13 14 21 20 19 13 19 21 26 31 34 33 47 52 50 47 43 45 54 59 62 64 67 68 67 67 69 70 70 69 70 71 72 73 75 76 76 76 76 76 75 75 75 74 75 75 76 76 75 74 73 74 73 73 75 74 74 73 71 71 74 74 74 73 73 73 75 76 77 76 77 77 77 76 77 76 75 74 74 71 72 71 70
15 13 13 13 13 10 18 22 16 14 13 15 17 15 11 13 13 12 24 20 17 19 23 25 32 32 44 48 46 45 45 49 54 55 61 65 66 68 67 68 68 69 69 69 71 72 73 73 75 76 76 76 76 76 75 75 75 75 75 76 75 75 74 73 72 73 71 73 74 74 72 72 72 71 71 74 74 75 75 74 74 74 76 76 77 77 76 76 77 76 75 75 74 70 72 71 69
13 11 11 13 13 11 19 15 23 18 15 18 11 12 14 12 15 18 21 21 18 19 20 21 33 35 36 45 45 42 45 47 47 54 63 64 66 67 67 66 68 69 70 70 72 72 72 73 74 75 76 76 76 76 76 76 76 76 76 76 76 75 74 72 72 72 73 73 73 74 73 72 72 70 69 70 74 74 76 76 75 75 75 75 75 75 76 76 76 75 75 75 74 74 72 71 71
12 10 11 10 13 14 18 20 16 16 16 17 15 13 13 17 22 17 20 21 19 21 23 21 25 32 34 33 38 46 44 45 49 54 62 63 64 66 68 67 67 69 71 71 71 71 71 73 74 74 75 75 75 74 75 76 76 75 75 75 76 75 74 74 73 73 74 73 72 72 73 72 72 73 72 73 73 74 75 75 75 75 75 75 75 75 76 77 77 76 74 74 74 75 73 71 72
13 14 10 10 13 14 17 18 22 22 17 17 14 13 13 19 19 18 18 23 25 18 21 21 22 26 26 31 30 36 46 46 46 54 59 62 63 64 66 66 66 68 70 70 69 70 70 71 73 73 73 75 76 75 76 75 75 75 74 76 76 76 76 75 74 74 72 73 73 71 72 71 72 71 71 72 71 73 74 74 73 73 72 72 74 74 74 76 76 76 74 73 73 75 74 72 71
10 12 13 10 9 11 12 13 14 15 20 19 19 13 17 18 11 12 21 25 25 23 24 29 24 26 27 32 33 37 45 48 49 53 57 60 63 62 65 66 66 67 69 69 68 69 69 70 71 72 73 73 73 74 75 76 75 75 75 76 76 76 76 74 74 74 74 73 74 74 72 72 73 72 72 71 72 73 74 74 73 74 71 73 75 74 74 75 77 76 75 75 74 75 75 72 72
10 9 12 10 8 10 12 15 11 10 13 19 15 19 24 15 10 16 17 23 23 24 26 26 27 23 33 33 36 41 45 50 51 51 54 58 62 63 63 65 66 66 67 68 68 68 68 69 69 70 71 71 71 73 75 76 75 74 74 75 75 75 76 75 74 74 74 73 74 74 74 74 73 73 73 71 73 73 73 74 73 74 74 73 75 75 73 74 76 76 75 74 74 75 75 73 73